Simultaneous Nadir Overpasses (SNOs) Predictions

Prediction of SNOs between GOES-17 and AQUA Satellite Orbit:

Table of predicted SNOs for the next 14.0 days since TLE Epoch: 8/26/2023
Index Date Time (GOES-17) GOES-17 Lat,Lon AQUA Lat,Lon Distance(km) Time Diff (sec)
1 08/26/2023 08:38:22 0.01,-104.72 -0.61,-101.81 330.77 80
2 08/26/2023 20:59:10 -0.02,-104.68 -0.49,-106.85 246.64 80
3 08/28/2023 20:47:24 -0.02,-104.67 0.25,-103.32 153.26 80
4 08/29/2023 09:08:05 0.03,-104.71 0.81,-108.33 412.32 80
5 08/31/2023 08:53:39 0.03,-104.71 0.03,-104.82 12.18 80
6 09/02/2023 08:36:32 0.03,-104.71 -0.72,-101.29 388.94 80
7 09/02/2023 20:57:20 -0.03,-104.67 -0.40,-106.32 188.44 80
8 09/04/2023 20:45:33 -0.03,-104.67 0.39,-102.80 212.99 80
9 09/05/2023 09:06:13 0.03,-104.71 0.71,-107.80 351.89 80
10 09/07/2023 08:49:05 0.04,-104.71 -0.06,-104.27 49.57 80
